CW3330 Weather Reports


time (UTC)temp
F
wind
direction
speed
knots
gust
knots
rain 1hr
in
rain 24hr
in
rain mn
in
humidity
%
barometer
mb
20260506112816 59 19 10.4 17.4 0.00 0.00 0.00 47 1009.1
20260506111317 58 20 7.8 13.9 0.00 0.00 0.00 54 1009.0
20260506110746 58 90 10.4 16.5 0.00 0.00 0.00 52 1009.1
20260506105306 58 84 8.7 15.6 0.00 0.00 0.00 53 1009.1
20260506104306 58 30 8.7 16.5 0.00 0.00 0.00 53 1009.1
20260506103308 57 34 7.0 18.2 0.00 0.00 0.00 54 1009.2
20260506102756 57 66 8.7 15.6 0.00 0.00 0.00 55 1009.2
20260506101737 56 47 8.7 17.4 0.00 0.00 0.00 52 1009.2
20260506100307 56 86 7.8 16.5 0.00 0.00 0.00 57 1009.3
20260506095306 56 26 10.4 20.0 0.00 0.00 0.00 56 1009.6
20260506094305 55 80 11.3 16.5 0.00 0.00 0.00 56 1009.4
20260506093320 55 327 7.8 19.1 0.00 0.00 0.00 57 1009.4
20260506092306 55 24 9.6 16.5 0.00 0.00 0.00 58 1009.4
20260506091306 54 46 8.7 17.4 0.00 0.00 0.00 58 1009.5
20260506090306 54 27 12.2 18.2 0.00 0.00 0.00 53 1009.4
20260506085306 55 27 6.1 14.8 0.00 0.00 0.00 60 1009.4
20260506084755 54 69 6.1 14.8 0.00 0.00 0.00 59 1009.3
20260506083306 54 34 7.0 14.8 0.00 0.00 0.00 60 1009.4
20260506082306 54 90 8.7 15.6 0.00 0.00 0.00 59 1009.3
20260506081305 54 46 6.1 14.8 0.00 0.00 0.00 60 1009.3
20260506080746 53 66 7.8 19.1 0.00 0.00 0.00 59 1009.3
20260506072306 52 68 7.0 16.5 0.00 0.00 0.00 57 1009.5
20260506071306 52 35 8.7 13.9 0.00 0.00 0.00 64 1009.4
20260506070306 51 62 7.8 15.6 0.00 0.00 0.00 60 1009.4
20260506062306 50 58 4.3 15.6 0.00 0.00 0.00 68 1009.3
20260506061306 50 40 7.0 15.6 0.00 0.00 0.00 68 1009.3
20260506060306 50 5 5.2 14.8 0.00 0.00 0.00 70 1009.3
20260506051306 46 28 3.5 7.8 0.00 0.00 0.00 80 1009.2
20260506050306 46 30 3.5 7.8 0.00 0.00 0.00 81 1009.2
20260506044305 44 5 3.5 6.1 0.00 0.00 0.00 82 1009.3
20260506043306 44 26 3.5 7.8 0.00 0.00 0.00 82 1009.3
20260506042306 44 18 2.6 4.3 0.00 0.00 0.00 83 1009.2
20260506041306 43 26 3.5 4.3 0.00 0.00 0.00 84 1009.3
20260506040306 42 18 2.6 4.3 0.00 0.00 0.00 86 1009.2
20260506035308 42 36 2.6 4.3 0.00 0.00 0.00 88 1009.3
20260506034321 41 46 1.7 2.6 0.00 0.00 0.00 88 1009.3
20260506033306 41 49 1.7 2.6 0.00 0.00 0.00 89 1009.2
20260506032318 40 49 0.0 1.7 0.00 0.00 0.00 89 1009.3
20260506031305 40 49 0.0 0.0 0.00 0.00 0.00 90 1009.3
20260506030750 40 49 0.0 0.0 0.00 0.00 0.00 90 1009.4
20260506025321 40 49 0.0 0.0 0.00 0.00 0.00 85 1009.4
20260506024305 40 49 0.0 0.0 0.00 0.00 0.00 90 1009.5
20260506023310 40 49 0.0 0.0 0.00 0.00 0.00 89 1009.5
20260506022306 41 49 0.0 0.0 0.00 0.00 0.00 89 1009.5
20260506021305 41 49 0.0 0.0 0.00 0.00 0.00 89 1009.5
20260506020307 41 49 0.0 0.0 0.00 0.00 0.00 90 1009.7
20260506015308 41 49 0.0 0.0 0.00 0.00 0.00 90 1009.7
20260506014307 42 49 0.0 0.9 0.00 0.00 0.00 90 1009.7
20260506013305 42 49 0.9 2.6 0.00 0.00 0.00 90 1009.8
20260506012308 42 50 0.0 0.0 0.00 0.00 0.00 90 1009.7
20260506011305 42 50 0.0 0.0 0.00 0.00 0.00 89 1009.8
20260506005752 42 50 0.0 0.0 0.00 0.00 0.00 89 1009.7
20260506004306 43 50 0.0 0.0 0.00 0.00 0.00 89 1009.8
20260506003307 43 50 0.0 0.0 0.00 0.00 0.00 89 1009.9
20260506002306 43 50 0.0 0.0 0.00 0.00 0.00 89 1009.9
20260506001306 43 50 0.0 0.0 0.00 0.00 0.00 90 1009.8
20260506000306 43 50 0.0 0.0 0.00 0.00 0.00 90 1009.9
20260505234309 43 50 0.0 0.0 0.00 0.00 0.00 89 1010.0
20260505233305 44 50 0.0 0.0 0.00 0.00 0.00 89 1010.1
20260505232306 44 50 0.0 0.0 0.00 0.00 0.00 90 1009.9
20260505231307 44 50 0.0 0.0 0.00 0.00 0.00 89 1010.0
20260505230306 44 50 0.0 0.0 0.00 0.00 0.00 89 1010.0
20260505225307 44 50 0.0 0.0 0.00 0.00 0.00 89 1010.0
20260505224310 44 50 0.0 0.0 0.00 0.00 0.00 88 1010.0
20260505223305 45 50 0.0 0.0 0.00 0.00 0.00 88 1010.1
20260505222307 45 50 0.0 0.0 0.00 0.00 0.00 87 1010.0
20260505221318 46 50 0.0 0.0 0.00 0.00 0.00 85 1010.1
20260505220328 47 50 0.0 0.0 0.00 0.00 0.00 85 1010.1
20260505215313 47 50 0.0 0.0 0.00 0.00 0.00 85 1010.2
20260505214313 47 50 0.9 2.6 0.00 0.00 0.00 85 1010.3
20260505213310 47 50 1.7 2.6 0.00 0.00 0.00 84 1010.3
20260505212311 47 50 0.0 0.0 0.00 0.00 0.00 83 1010.4
20260505211311 47 50 0.0 2.6 0.00 0.00 0.00 83 1010.4
20260505210311 47 50 0.0 1.7 0.00 0.00 0.00 82 1010.5
20260505205310 48 50 0.0 1.7 0.00 0.00 0.00 81 1010.5
20260505204810 48 50 0.9 2.6 0.00 0.00 0.00 81 1010.5
20260505203312 48 50 0.0 2.6 0.00 0.00 0.00 80 1010.5
20260505202310 49 50 1.7 3.5 0.00 0.00 0.00 80 1010.5
20260505201310 49 47 1.7 4.3 0.00 0.00 0.00 79 1010.5
20260505200311 49 55 2.6 6.1 0.00 0.00 0.00 78 1010.4
20260505195312 50 58 2.6 4.3 0.00 0.00 0.00 77 1010.4
20260505194747 50 71 1.7 4.3 0.00 0.00 0.00 76 1010.4
20260505193741 51 72 2.6 7.0 0.00 0.00 0.00 75 1010.3
20260505192757 51 63 1.7 6.1 0.00 0.00 0.00 74 1010.4
20260505191258 51 63 2.6 7.0 0.00 0.00 0.00 73 1010.2
20260505190259 51 82 1.7 8.7 0.00 0.00 0.00 73 1010.1
20260505185250 52 78 1.7 7.0 0.00 0.00 0.00 71 1010.1
20260505184245 52 52 2.6 6.1 0.00 0.00 0.00 70 1009.9
20260505183331 53 75 3.5 7.8 0.00 0.00 0.00 68 1010.0
20260505182332 53 81 3.5 8.7 0.00 0.00 0.00 66 1010.0
20260505181332 54 69 4.3 10.4 0.00 0.00 0.00 64 1010.1
20260505180333 54 51 4.3 10.4 0.00 0.00 0.00 62 1010.0
20260505175331 54 67 5.2 10.4 0.00 0.00 0.00 62 1010.1
20260505174331 55 28 6.1 11.3 0.00 0.00 0.00 60 1010.1
20260505173803 55 46 4.3 10.4 0.00 0.00 0.00 61 1010.0
20260505172331 55 44 7.0 11.3 0.00 0.00 0.00 60 1010.0
20260505171331 55 84 4.3 12.2 0.00 0.00 0.00 60 1010.1
20260505170333 56 13 7.0 11.3 0.00 0.00 0.00 59 1010.1
20260505165331 56 18 6.1 10.4 0.00 0.00 0.00 56 1010.2
20260505163331 57 59 7.0 11.3 0.00 0.00 0.00 65 1010.2
20260505162814 57 13 6.1 9.6 0.00 0.00 0.00 65 1010.3
20260505161331 58 25 5.2 12.2 0.00 0.00 0.00 63 1010.4
20260505160818 59 15 4.3 9.6 0.00 0.00 0.00 59 1010.3
20260505153333 57 67 3.5 8.7 0.00 0.00 0.00 66 1010.5
20260505152331 57 36 3.5 7.8 0.00 0.00 0.00 65 1010.4
20260505151331 57 57 4.3 7.8 0.00 0.00 0.00 60 1010.4
20260505150818 57 40 4.3 8.7 0.00 0.00 0.00 66 1010.4
20260505140331 57 87 6.1 11.3 0.00 0.00 0.00 62 1010.7
20260505124332 57 80 3.5 10.4 0.00 0.00 0.00 65 1011.0
20260505123810 59 30 5.2 11.3 0.00 0.00 0.00 61 1011.1
20260505122331 58 45 3.5 11.3 0.00 0.00 0.00 58 1011.1
20260505120332 58 67 5.2 14.8 0.00 0.00 0.00 63 1011.1
20260505115331 58 69 6.1 12.2 0.00 0.00 0.00 62 1011.1
20260505114333 58 26 5.2 12.2 0.00 0.00 0.00 64 1011.1